Check out our new BloomSky Weather System.

Active alerts


No alerts


Thunder radar  blitzortung!


Rain radar more information rain snow radar


Visit our other weather sites:

Template documentation
and downloads

And another site



Weather Underground History page Text

Daily Summary for September 28, 2017 Units:  English    Metric   Both
« Previous Day
Next Day »
Daily Weekly Monthly Yearly Custom
  High: Low: Average:
Temperature: 92.1 °F 75.7 °F 80.3 °F
Dew Point: 79.2 °F 73.8 °F 75.9 °F
Humidity: 97 % 58 % 88 %
Wind Speed: 8.0 mph 0.0 mph 0.7 mph
Wind Gust: 9.0 mph - -
Wind:- - SSW
Pressure: 29.98 in 29.88 in -
Precipitation: 0.24 in    
Historical Graphs
 
 
Tabular Data for September 28, 2017
Time Temperature Dew Point Pressure Wind Wind Speed Wind Gust Humidity Rainfall Rate (Hourly)
00:01 78.1 °F 75.6 °F 29.93 in Calm     92 % 0.00 in
00:06 77.9 °F 75.7 °F 29.93 in Calm     93 % 0.00 in
00:11 77.7 °F 75.6 °F 29.93 in Calm     93 % 0.00 in
00:16 77.7 °F 75.6 °F 29.93 in Calm     93 % 0.00 in
00:21 77.5 °F 75.4 °F 29.93 in Calm     93 % 0.00 in
00:26 77.5 °F 75.4 °F 29.93 in Calm     93 % 0.00 in
00:31 77.5 °F 75.4 °F 29.93 in Calm     93 % 0.00 in
00:36 77.5 °F 75.4 °F 29.92 in Calm     93 % 0.00 in
00:41 77.5 °F 75.4 °F 29.92 in Calm     93 % 0.00 in
00:46 77.5 °F 75.7 °F 29.92 in Calm     94 % 0.00 in
00:51 77.5 °F 75.7 °F 29.92 in Calm     94 % 0.00 in
00:56 77.5 °F 75.7 °F 29.92 in Calm     94 % 0.00 in
01:01 77.5 °F 75.7 °F 29.93 in Calm     94 % 0.00 in
01:06 77.7 °F 75.9 °F 29.93 in Calm     94 % 0.00 in
01:11 77.7 °F 75.9 °F 29.93 in Calm     94 % 0.00 in
01:16 77.7 °F 75.9 °F 29.93 in Calm     94 % 0.00 in
01:21 77.7 °F 75.6 °F 29.93 in Calm     93 % 0.00 in
01:26 77.7 °F 75.9 °F 29.92 in Calm     94 % 0.00 in
01:31 77.7 °F 75.9 °F 29.93 in Calm     94 % 0.00 in
01:36 77.7 °F 75.9 °F 29.93 in Calm     94 % 0.00 in
01:41 77.7 °F 75.9 °F 29.92 in Calm     94 % 0.00 in
01:46 77.7 °F 75.9 °F 29.92 in Calm     94 % 0.00 in
01:51 77.7 °F 75.9 °F 29.92 in Calm     94 % 0.00 in
01:52 77.7 °F 75.9 °F 29.92 in Calm     94 % 0.00 in
01:57 77.7 °F 75.9 °F 29.92 in Calm     94 % 0.00 in
02:02 77.7 °F 75.9 °F 29.92 in Calm     94 % 0.00 in
02:07 77.7 °F 75.9 °F 29.92 in Calm     94 % 0.00 in
02:12 77.7 °F 75.9 °F 29.92 in Calm     94 % 0.00 in
02:17 77.7 °F 75.9 °F 29.92 in Calm     94 % 0.00 in
02:22 77.5 °F 75.7 °F 29.92 in Calm     94 % 0.00 in
02:27 77.5 °F 75.7 °F 29.92 in Calm     94 % 0.00 in
02:32 77.5 °F 75.7 °F 29.91 in Calm     94 % 0.00 in
02:37 77.5 °F 75.7 °F 29.91 in Calm     94 % 0.00 in
02:42 77.5 °F 75.7 °F 29.91 in Calm     94 % 0.00 in
02:47 77.5 °F 75.7 °F 29.91 in Calm     94 % 0.00 in
02:52 77.5 °F 75.7 °F 29.91 in Calm     94 % 0.00 in
02:57 77.5 °F 75.7 °F 29.91 in Calm     94 % 0.00 in
03:02 77.5 °F 75.7 °F 29.91 in Calm     94 % 0.00 in
03:07 77.5 °F 75.7 °F 29.91 in Calm     94 % 0.00 in
03:12 77.5 °F 75.7 °F 29.91 in Calm     94 % 0.00 in
03:17 77.5 °F 75.9 °F 29.91 in Calm     95 % 0.00 in
03:22 77.5 °F 75.7 °F 29.91 in Calm     94 % 0.00 in
03:27 77.5 °F 75.7 °F 29.91 in Calm     94 % 0.00 in
03:29 77.5 °F 75.7 °F 29.91 in Calm     94 % 0.00 in
03:34 77.4 °F 75.6 °F 29.91 in Calm     94 % 0.00 in
03:39 77.2 °F 75.6 °F 29.91 in Calm     95 % 0.00 in
03:44 77.2 °F 75.6 °F 29.91 in Calm     95 % 0.00 in
03:49 77.2 °F 75.6 °F 29.91 in Calm     95 % 0.00 in
03:55 77.0 °F 75.4 °F 29.91 in Calm     95 % 0.00 in
04:00 77.0 °F 75.7 °F 29.91 in Calm     96 % 0.00 in
04:05 77.2 °F 75.9 °F 29.91 in Calm     96 % 0.00 in
04:10 77.2 °F 75.9 °F 29.91 in Calm     96 % 0.00 in
04:15 77.2 °F 75.6 °F 29.91 in Calm     95 % 0.00 in
04:20 77.2 °F 75.6 °F 29.91 in Calm     95 % 0.00 in
04:25 77.2 °F 75.9 °F 29.91 in Calm     96 % 0.00 in
04:30 77.2 °F 75.9 °F 29.91 in Calm     96 % 0.00 in
04:35 77.2 °F 75.6 °F 29.91 in Calm     95 % 0.00 in
04:40 77.2 °F 75.9 °F 29.90 in Calm     96 % 0.00 in
04:45 77.0 °F 75.7 °F 29.90 in Calm     96 % 0.00 in
04:50 76.8 °F 75.2 °F 29.90 in Calm     95 % 0.00 in
04:55 76.6 °F 75.0 °F 29.90 in Calm     95 % 0.00 in
05:00 76.5 °F 75.2 °F 29.91 in Calm     96 % 0.00 in
05:05 76.5 °F 75.2 °F 29.91 in Calm     96 % 0.00 in
05:06 76.5 °F 75.2 °F 29.91 in Calm     96 % 0.00 in
05:11 76.5 °F 75.2 °F 29.91 in Calm     96 % 0.00 in
05:16 76.5 °F 75.6 °F 29.91 in Calm     97 % 0.00 in
05:21 76.5 °F 75.6 °F 29.91 in Calm     97 % 0.00 in
05:26 76.5 °F 75.6 °F 29.91 in Calm     97 % 0.00 in
05:31 76.5 °F 75.6 °F 29.91 in Calm     97 % 0.00 in
05:36 76.5 °F 75.2 °F 29.91 in Calm     96 % 0.00 in
05:41 76.5 °F 75.6 °F 29.91 in Calm     97 % 0.00 in
05:46 76.5 °F 75.6 °F 29.91 in Calm     97 % 0.00 in
05:51 76.5 °F 75.6 °F 29.91 in Calm     97 % 0.00 in
05:56 76.5 °F 75.6 °F 29.91 in Calm     97 % 0.00 in
06:01 76.6 °F 75.7 °F 29.92 in Calm     97 % 0.00 in
06:06 76.6 °F 75.7 °F 29.92 in Calm     97 % 0.00 in
06:11 76.6 °F 75.7 °F 29.92 in Calm     97 % 0.00 in
06:16 76.6 °F 75.7 °F 29.92 in Calm     97 % 0.00 in
06:21 76.6 °F 75.7 °F 29.92 in Calm     97 % 0.00 in
06:26 76.6 °F 75.7 °F 29.92 in Calm     97 % 0.00 in
06:31 76.6 °F 75.7 °F 29.92 in Calm     97 % 0.00 in
06:36 76.6 °F 75.7 °F 29.93 in Calm     97 % 0.00 in
06:41 76.6 °F 75.7 °F 29.93 in Calm     97 % 0.00 in
06:46 76.6 °F 75.7 °F 29.93 in Calm     97 % 0.00 in
06:51 76.6 °F 75.7 °F 29.93 in Calm     97 % 0.00 in
06:56 76.8 °F 75.9 °F 29.93 in Calm     97 % 0.00 in
07:01 76.8 °F 75.9 °F 29.93 in Calm     97 % 0.00 in
07:06 76.8 °F 75.9 °F 29.93 in Calm     97 % 0.00 in
07:11 76.8 °F 75.9 °F 29.93 in Calm     97 % 0.00 in
07:16 76.8 °F 75.6 °F 29.94 in Calm     96 % 0.00 in
07:21 76.8 °F 75.6 °F 29.94 in Calm   1.0 mph 96 % 0.00 in
07:26 76.8 °F 75.6 °F 29.94 in Calm   1.0 mph 96 % 0.00 in
07:31 76.8 °F 75.9 °F 29.94 in Calm   1.0 mph 97 % 0.00 in
07:36 77.0 °F 76.1 °F 29.94 in Calm     97 % 0.00 in
07:46 77.4 °F 76.1 °F 29.95 in Calm   2.0 mph 96 % 0.00 in
07:51 77.4 °F 76.1 °F 29.94 in WNW 1.0 mph 2.0 mph 96 % 0.00 in
07:56 77.5 °F 76.3 °F 29.94 in North 2.0 mph 3.0 mph 96 % 0.00 in
08:01 77.5 °F 76.3 °F 29.95 in NNW 2.0 mph 3.0 mph 96 % 0.00 in
08:06 77.5 °F 76.3 °F 29.95 in NW 2.0 mph 5.0 mph 96 % 0.00 in
08:11 77.5 °F 76.3 °F 29.95 in NW 1.0 mph 5.0 mph 96 % 0.00 in
08:16 77.7 °F 76.1 °F 29.95 in NNE 1.0 mph 5.0 mph 95 % 0.00 in
08:21 77.9 °F 76.3 °F 29.95 in NNW 2.0 mph 4.0 mph 95 % 0.00 in
08:26 78.1 °F 76.5 °F 29.95 in Calm   3.0 mph 95 % 0.00 in
08:31 78.1 °F 76.5 °F 29.95 in Calm   3.0 mph 95 % 0.00 in
08:36 78.3 °F 76.5 °F 29.95 in Calm   3.0 mph 94 % 0.00 in
08:41 78.4 °F 76.6 °F 29.96 in NW 1.0 mph 3.0 mph 94 % 0.00 in
08:46 78.4 °F 76.6 °F 29.96 in Calm   3.0 mph 94 % 0.00 in
08:51 78.6 °F 76.8 °F 29.96 in Calm   3.0 mph 94 % 0.00 in
08:56 78.8 °F 77.0 °F 29.96 in Calm   3.0 mph 94 % 0.00 in
09:02 79.0 °F 76.8 °F 29.96 in ENE 2.0 mph 2.0 mph 93 % 0.00 in
09:07 78.8 °F 76.3 °F 29.96 in Calm   3.0 mph 92 % 0.00 in
09:12 79.0 °F 76.8 °F 29.96 in Calm   3.0 mph 93 % 0.00 in
09:17 79.0 °F 76.8 °F 29.96 in Calm   3.0 mph 93 % 0.00 in
09:22 79.2 °F 76.6 °F 29.96 in NNW 1.0 mph 3.0 mph 92 % 0.00 in
09:27 79.3 °F 76.8 °F 29.96 in Calm   2.0 mph 92 % 0.00 in
09:32 79.5 °F 76.6 °F 29.96 in Calm   3.0 mph 91 % 0.00 in
09:37 79.5 °F 76.6 °F 29.96 in Calm   4.0 mph 91 % 0.00 in
09:42 79.7 °F 76.8 °F 29.96 in NNW 2.0 mph 4.0 mph 91 % 0.00 in
09:47 79.9 °F 77.0 °F 29.97 in NW 1.0 mph 4.0 mph 91 % 0.00 in
09:52 80.1 °F 77.2 °F 29.97 in ENE 1.0 mph 3.0 mph 91 % 0.00 in
09:57 80.2 °F 77.0 °F 29.97 in WNW 1.0 mph 3.0 mph 90 % 0.00 in
10:02 80.4 °F 77.2 °F 29.97 in NNE 2.0 mph 3.0 mph 90 % 0.00 in
10:07 80.8 °F 77.2 °F 29.97 in North 1.0 mph 2.0 mph 89 % 0.00 in
10:12 81.1 °F 77.2 °F 29.97 in NW 1.0 mph 3.0 mph 88 % 0.00 in
10:17 81.5 °F 77.5 °F 29.97 in Calm   3.0 mph 88 % 0.00 in
10:22 81.7 °F 77.4 °F 29.97 in NW 1.0 mph 3.0 mph 87 % 0.00 in
10:27 81.9 °F 77.2 °F 29.97 in North 3.0 mph 4.0 mph 86 % 0.00 in
10:32 82.0 °F 77.0 °F 29.97 in Calm   4.0 mph 85 % 0.00 in
10:37 82.6 °F 77.5 °F 29.97 in ENE 2.0 mph 4.0 mph 85 % 0.00 in
10:42 82.9 °F 77.2 °F 29.97 in WNW 1.0 mph 3.0 mph 83 % 0.00 in
10:47 83.3 °F 77.2 °F 29.97 in NW 1.0 mph 4.0 mph 82 % 0.00 in
10:52 83.5 °F 77.4 °F 29.97 in Calm   4.0 mph 82 % 0.00 in
10:57 83.8 °F 77.7 °F 29.97 in NW 1.0 mph 4.0 mph 82 % 0.00 in
11:02 84.0 °F 77.5 °F 29.97 in NW 1.0 mph 3.0 mph 81 % 0.00 in
11:07 84.6 °F 78.1 °F 29.97 in NE 1.0 mph 3.0 mph 81 % 0.00 in
11:12 85.1 °F 78.6 °F 29.97 in Calm   3.0 mph 81 % 0.00 in
11:17 85.6 °F 77.9 °F 29.97 in NW 2.0 mph 3.0 mph 78 % 0.00 in
11:22 86.2 °F 77.7 °F 29.96 in NNW 2.0 mph 4.0 mph 76 % 0.00 in
11:27 86.5 °F 77.7 °F 29.96 in NW 1.0 mph 5.0 mph 75 % 0.00 in
11:32 87.3 °F 78.4 °F 29.96 in NW 1.0 mph 5.0 mph 75 % 0.00 in
11:37 88.0 °F 77.9 °F 29.96 in NNW 2.0 mph 5.0 mph 72 % 0.00 in
11:42 88.3 °F 77.7 °F 29.96 in ENE 1.0 mph 3.0 mph 71 % 0.00 in
11:47 88.5 °F 79.2 °F 29.96 in Calm   5.0 mph 74 % 0.00 in
11:52 88.5 °F 78.3 °F 29.96 in NNE 1.0 mph 5.0 mph 72 % 0.00 in
11:57 89.1 °F 77.5 °F 29.96 in South 1.0 mph 5.0 mph 69 % 0.00 in
12:03 89.4 °F 78.3 °F 29.96 in Calm   6.0 mph 70 % 0.00 in
12:08 89.4 °F 77.5 °F 29.96 in Calm   6.0 mph 68 % 0.00 in
12:13 88.7 °F 76.8 °F 29.95 in NW 3.0 mph 6.0 mph 68 % 0.00 in
12:15 88.5 °F 76.6 °F 29.95 in NNW 1.0 mph 6.0 mph 68 % 0.00 in
12:20 88.2 °F 76.6 °F 29.95 in NW 2.0 mph 7.0 mph 69 % 0.00 in
12:25 88.0 °F 76.5 °F 29.94 in SSE 2.0 mph 7.0 mph 69 % 0.00 in
12:30 88.2 °F 76.6 °F 29.94 in Calm   7.0 mph 69 % 0.00 in
12:35 88.3 °F 75.9 °F 29.94 in NW 4.0 mph 4.0 mph 67 % 0.00 in
12:40 88.7 °F 75.9 °F 29.94 in ENE 1.0 mph 4.0 mph 66 % 0.00 in
12:45 89.6 °F 76.3 °F 29.94 in East 1.0 mph 5.0 mph 65 % 0.00 in
12:50 89.8 °F 75.9 °F 29.94 in East 3.0 mph 5.0 mph 64 % 0.00 in
12:55 89.8 °F 76.5 °F 29.94 in East 3.0 mph 6.0 mph 65 % 0.00 in
13:00 90.1 °F 76.8 °F 29.93 in NNW 1.0 mph 6.0 mph 65 % 0.00 in
13:05 90.7 °F 76.3 °F 29.93 in Calm   6.0 mph 63 % 0.00 in
13:10 91.6 °F 76.6 °F 29.93 in NNE 2.0 mph 6.0 mph 62 % 0.00 in
13:15 91.9 °F 76.1 °F 29.92 in NNW 1.0 mph 6.0 mph 60 % 0.00 in
13:20 92.1 °F 75.7 °F 29.92 in ENE 4.0 mph 7.0 mph 59 % 0.00 in
13:25 91.8 °F 76.5 °F 29.92 in NNE 1.0 mph 7.0 mph 61 % 0.00 in
13:30 91.6 °F 76.3 °F 29.91 in NNW 5.0 mph 7.0 mph 61 % 0.00 in
13:35 91.4 °F 76.1 °F 29.91 in NNW 5.0 mph 8.0 mph 61 % 0.00 in
13:40 91.6 °F 74.7 °F 29.91 in NW 2.0 mph 8.0 mph 58 % 0.00 in
13:45 91.6 °F 75.2 °F 29.91 in ENE 1.0 mph 8.0 mph 59 % 0.00 in
13:50 91.2 °F 75.9 °F 29.91 in Calm   8.0 mph 61 % 0.00 in
13:55 91.0 °F 76.6 °F 29.91 in North 2.0 mph 6.0 mph 63 % 0.00 in
14:00 90.7 °F 76.3 °F 29.90 in NNW 1.0 mph 6.0 mph 63 % 0.00 in
14:05 90.1 °F 76.3 °F 29.90 in NNW 4.0 mph 7.0 mph 64 % 0.00 in
14:10 89.6 °F 76.3 °F 29.91 in NE 2.0 mph 7.0 mph 65 % 0.00 in
14:15 89.4 °F 73.8 °F 29.90 in East 2.0 mph 7.0 mph 60 % 0.00 in
14:20 89.4 °F 74.1 °F 29.90 in NE 2.0 mph 5.0 mph 61 % 0.00 in
14:25 90.0 °F 74.7 °F 29.90 in East 2.0 mph 5.0 mph 61 % 0.00 in
14:30 90.7 °F 75.4 °F 29.90 in ESE 1.0 mph 5.0 mph 61 % 0.00 in
14:35 90.9 °F 76.1 °F 29.89 in North 1.0 mph 8.0 mph 62 % 0.00 in
14:41 91.4 °F 75.6 °F 29.89 in ENE 2.0 mph 8.0 mph 60 % 0.00 in
14:46 91.8 °F 76.8 °F 29.89 in SSE 4.0 mph 8.0 mph 62 % 0.00 in
14:51 91.8 °F 75.9 °F 29.89 in SSE 3.0 mph 6.0 mph 60 % 0.00 in
14:56 91.8 °F 75.4 °F 29.89 in ESE 3.0 mph 9.0 mph 59 % 0.00 in
15:01 91.8 °F 75.9 °F 29.89 in ESE 3.0 mph 9.0 mph 60 % 0.00 in
15:06 91.6 °F 75.7 °F 29.89 in NE 8.0 mph 9.0 mph 60 % 0.00 in
15:11 88.9 °F 78.3 °F 29.89 in NE 3.0 mph 9.0 mph 71 % 0.03 in
15:16 85.6 °F 78.4 °F 29.89 in NE 2.0 mph 9.0 mph 79 % 0.05 in
15:21 84.0 °F 77.9 °F 29.89 in Calm   8.0 mph 82 % 0.05 in
15:26 83.7 °F 77.5 °F 29.88 in Calm   6.0 mph 82 % 0.05 in
15:31 83.5 °F 76.6 °F 29.88 in Calm   2.0 mph 80 % 0.05 in
15:36 84.0 °F 78.3 °F 29.88 in Calm   1.0 mph 83 % 0.05 in
15:41 84.0 °F 78.3 °F 29.88 in Calm   2.0 mph 83 % 0.05 in
15:46 84.2 °F 78.4 °F 29.88 in Calm   2.0 mph 83 % 0.05 in
15:51 84.6 °F 78.8 °F 29.88 in Calm   2.0 mph 83 % 0.05 in
15:56 84.9 °F 78.8 °F 29.88 in Calm   1.0 mph 82 % 0.05 in
16:01 85.3 °F 78.4 °F 29.88 in Calm   1.0 mph 80 % 0.05 in
16:06 85.5 °F 77.7 °F 29.88 in Calm   2.0 mph 78 % 0.05 in
16:11 85.8 °F 78.1 °F 29.88 in Calm   2.0 mph 78 % 0.01 in
16:16 86.2 °F 77.7 °F 29.88 in Calm   2.0 mph 76 % 0.00 in
16:21 86.5 °F 78.4 °F 29.88 in Calm   2.0 mph 77 % 0.00 in
16:26 86.7 °F 77.4 °F 29.88 in Calm   1.0 mph 74 % 0.00 in
16:31 87.1 °F 78.3 °F 29.88 in Calm   1.0 mph 75 % 0.00 in
16:36 87.3 °F 77.5 °F 29.88 in Calm   1.0 mph 73 % 0.00 in
16:41 87.6 °F 78.3 °F 29.88 in Calm   1.0 mph 74 % 0.00 in
16:46 87.6 °F 78.3 °F 29.88 in NNW 1.0 mph 2.0 mph 74 % 0.00 in
16:51 87.3 °F 78.4 °F 29.88 in NW 2.0 mph 3.0 mph 75 % 0.00 in
16:56 86.5 °F 78.4 °F 29.88 in NW 4.0 mph 5.0 mph 77 % 0.00 in
17:01 86.2 °F 78.4 °F 29.88 in NW 4.0 mph 5.0 mph 78 % 0.00 in
17:06 85.6 °F 77.5 °F 29.88 in NW 2.0 mph 7.0 mph 77 % 0.00 in
17:11 85.3 °F 77.2 °F 29.89 in NW 2.0 mph 7.0 mph 77 % 0.00 in
17:16 84.4 °F 75.9 °F 29.89 in WNW 2.0 mph 7.0 mph 76 % 0.00 in
17:21 83.7 °F 75.2 °F 29.89 in NW 4.0 mph 9.0 mph 76 % 0.01 in
17:26 82.0 °F 75.9 °F 29.90 in NW 1.0 mph 9.0 mph 82 % 0.06 in
17:31 80.4 °F 75.9 °F 29.90 in NNW 2.0 mph 9.0 mph 86 % 0.17 in
17:36 79.3 °F 75.6 °F 29.90 in Calm   6.0 mph 88 % 0.18 in
17:41 79.0 °F 75.4 °F 29.89 in Calm   4.0 mph 89 % 0.19 in
17:47 78.6 °F 75.4 °F 29.89 in Calm   3.0 mph 90 % 0.19 in
17:52 78.4 °F 75.6 °F 29.89 in Calm   2.0 mph 91 % 0.19 in
17:57 78.4 °F 75.9 °F 29.89 in Calm   2.0 mph 92 % 0.19 in
18:02 78.3 °F 75.7 °F 29.90 in Calm   1.0 mph 92 % 0.19 in
18:07 78.3 °F 75.7 °F 29.90 in SSE 1.0 mph 1.0 mph 92 % 0.19 in
18:12 78.3 °F 76.1 °F 29.90 in Calm   1.0 mph 93 % 0.19 in
18:17 78.3 °F 76.1 °F 29.90 in ESE 1.0 mph 1.0 mph 93 % 0.19 in
18:22 78.3 °F 75.7 °F 29.91 in SE 2.0 mph 2.0 mph 92 % 0.18 in
18:27 78.4 °F 75.2 °F 29.91 in SE 4.0 mph 6.0 mph 90 % 0.12 in
18:32 79.0 °F 75.7 °F 29.91 in ESE 4.0 mph 6.0 mph 90 % 0.02 in
18:37 79.0 °F 75.4 °F 29.92 in ESE 2.0 mph 6.0 mph 89 % 0.01 in
18:42 78.8 °F 75.6 °F 29.92 in ESE 2.0 mph 7.0 mph 90 % 0.00 in
18:47 78.6 °F 75.4 °F 29.92 in SE 1.0 mph 7.0 mph 90 % 0.00 in
18:52 78.6 °F 75.4 °F 29.92 in East 3.0 mph 7.0 mph 90 % 0.00 in
18:57 78.6 °F 75.4 °F 29.93 in ESE 3.0 mph 6.0 mph 90 % 0.00 in
19:02 78.3 °F 75.0 °F 29.93 in SSE 2.0 mph 8.0 mph 90 % 0.00 in
19:07 78.1 °F 74.8 °F 29.93 in SE 2.0 mph 9.0 mph 90 % 0.00 in
19:12 77.7 °F 74.5 °F 29.93 in SE 3.0 mph 9.0 mph 90 % 0.00 in
19:17 77.5 °F 74.7 °F 29.93 in ESE 2.0 mph 9.0 mph 91 % 0.00 in
19:22 77.4 °F 74.5 °F 29.93 in ESE 2.0 mph 6.0 mph 91 % 0.00 in
19:27 77.2 °F 74.7 °F 29.93 in SE 2.0 mph 6.0 mph 92 % 0.00 in
19:32 77.2 °F 75.0 °F 29.93 in SE 2.0 mph 5.0 mph 93 % 0.00 in
19:37 76.8 °F 74.7 °F 29.94 in ESE 1.0 mph 5.0 mph 93 % 0.00 in
19:42 76.8 °F 74.7 °F 29.94 in Calm   4.0 mph 93 % 0.00 in
19:47 76.6 °F 74.5 °F 29.94 in ESE 1.0 mph 4.0 mph 93 % 0.00 in
19:52 76.6 °F 74.5 °F 29.94 in Calm   3.0 mph 93 % 0.00 in
19:57 76.6 °F 74.5 °F 29.94 in SE 1.0 mph 3.0 mph 93 % 0.00 in
20:02 76.6 °F 74.5 °F 29.94 in ESE 2.0 mph 3.0 mph 93 % 0.00 in
20:07 76.6 °F 74.5 °F 29.94 in Calm   3.0 mph 93 % 0.00 in
20:12 76.6 °F 74.5 °F 29.94 in Calm   2.0 mph 93 % 0.00 in
20:17 76.5 °F 74.3 °F 29.95 in Calm   2.0 mph 93 % 0.00 in
20:22 76.5 °F 74.7 °F 29.95 in Calm   2.0 mph 94 % 0.00 in
20:27 76.3 °F 74.5 °F 29.95 in South 1.0 mph 2.0 mph 94 % 0.00 in
20:32 76.1 °F 74.3 °F 29.95 in Calm   2.0 mph 94 % 0.00 in
20:37 75.9 °F 74.1 °F 29.95 in Calm   2.0 mph 94 % 0.00 in
20:42 75.7 °F 74.1 °F 29.96 in Calm   2.0 mph 95 % 0.00 in
20:47 75.7 °F 74.1 °F 29.96 in SSW 2.0 mph 2.0 mph 95 % 0.00 in
20:52 75.9 °F 74.3 °F 29.96 in South 1.0 mph 2.0 mph 95 % 0.00 in
20:57 75.9 °F 74.3 °F 29.96 in Calm   2.0 mph 95 % 0.00 in
21:02 75.9 °F 74.3 °F 29.96 in Calm   2.0 mph 95 % 0.00 in
21:07 75.9 °F 74.3 °F 29.96 in SSE 1.0 mph 1.0 mph 95 % 0.00 in
21:12 75.9 °F 74.3 °F 29.96 in SSE 1.0 mph 1.0 mph 95 % 0.00 in
21:17 75.9 °F 74.3 °F 29.97 in Calm   2.0 mph 95 % 0.00 in
21:22 75.7 °F 74.1 °F 29.97 in Calm   2.0 mph 95 % 0.00 in
21:27 75.7 °F 74.5 °F 29.97 in Calm   2.0 mph 96 % 0.00 in
21:32 75.7 °F 74.1 °F 29.97 in Calm   1.0 mph 95 % 0.00 in
21:37 75.7 °F 74.5 °F 29.97 in Calm     96 % 0.00 in
21:42 75.7 °F 74.5 °F 29.97 in Calm     96 % 0.00 in
21:47 75.7 °F 74.5 °F 29.97 in Calm     96 % 0.00 in
21:52 75.7 °F 74.5 °F 29.98 in Calm     96 % 0.00 in
21:57 75.7 °F 74.5 °F 29.98 in Calm     96 % 0.00 in
22:02 75.7 °F 74.5 °F 29.98 in Calm     96 % 0.00 in
22:07 75.7 °F 74.8 °F 29.98 in Calm     97 % 0.00 in
22:12 75.9 °F 75.0 °F 29.98 in Calm   1.0 mph 97 % 0.00 in
22:18 75.9 °F 75.0 °F 29.98 in Calm   1.0 mph 97 % 0.00 in
22:20 76.1 °F 75.2 °F 29.98 in Calm   2.0 mph 97 % 0.00 in
22:25 75.9 °F 74.7 °F 29.98 in Calm   2.0 mph 96 % 0.00 in
22:27 75.9 °F 74.7 °F 29.98 in WNW 1.0 mph 2.0 mph 96 % 0.00 in
22:29 75.9 °F 74.7 °F 29.98 in Calm   2.0 mph 96 % 0.00 in
22:32 75.9 °F 74.7 °F 29.98 in Calm   2.0 mph 96 % 0.00 in
22:37 75.9 °F 74.7 °F 29.97 in Calm   2.0 mph 96 % 0.00 in
22:42 75.9 °F 74.7 °F 29.97 in Calm   2.0 mph 96 % 0.00 in
22:47 75.9 °F 74.7 °F 29.97 in Calm   2.0 mph 96 % 0.00 in
22:52 75.9 °F 74.7 °F 29.97 in Calm   2.0 mph 96 % 0.00 in
22:57 75.9 °F 75.0 °F 29.97 in Calm   1.0 mph 97 % 0.00 in
23:02 75.9 °F 75.0 °F 29.97 in NW 2.0 mph 2.0 mph 97 % 0.00 in
23:07 75.9 °F 75.0 °F 29.97 in Calm   2.0 mph 97 % 0.00 in
23:12 75.9 °F 74.7 °F 29.97 in Calm   2.0 mph 96 % 0.00 in
23:17 76.1 °F 74.8 °F 29.97 in NW 1.0 mph 2.0 mph 96 % 0.00 in
23:22 75.9 °F 74.7 °F 29.97 in Calm   2.0 mph 96 % 0.00 in
23:27 75.9 °F 74.7 °F 29.97 in Calm   2.0 mph 96 % 0.00 in
23:32 75.9 °F 74.7 °F 29.97 in Calm   1.0 mph 96 % 0.00 in
23:37 75.9 °F 74.7 °F 29.97 in Calm   1.0 mph 96 % 0.00 in
23:42 75.9 °F 74.7 °F 29.97 in NW 1.0 mph 1.0 mph 96 % 0.00 in
23:47 75.9 °F 74.7 °F 29.97 in Calm   2.0 mph 96 % 0.00 in
23:52 75.9 °F 74.7 °F 29.97 in Calm   2.0 mph 96 % 0.00 in
23:57 75.9 °F 74.7 °F 29.97 in Calm   2.0 mph 96 % 0.00 in
Spring, Texas: Villages of Bridgestone
Compliments of Weather Underground - 2.75 mb

Script developed by  Jim McMurry - jmcmurry@mwt.net Adapted for the template by  Wim van der Kuil - Leuven-Template.eu

You find our weather info also at:

UK Metoffice

WeatherCloud

Weather Underground

Mid-South Weather Network

AWEKAS

Citizen Weather Observer Program (CWOP)

HAMweather, WeatherForYou, PWS Weather

Equipment we use:

Weather-station
Davis Vantage Vue

Weather-program
Meteohub

Weather-server
Debian 7.9 x86 (Guest)

Provider
DreamHost

Davis Vantage Vue

Meteohub

Debian 7.9 x86 (Guest)

DreamHost